Regional Weather Roundup
Issued by NWS Sioux Falls, SD

Home | Current Version | Previous Version | Text Only | Print | Product List | Glossary Off
Versions: 1 2 3 4 5 6 7 8 9 10 11 12 13 14 15 16 17 18 19 20 21 22 23 24 25 26 27 28 29 30 31 32 33 34 35 36 37 38 39 40 41 42 43 44 45 46 47 48 49 50

000
ASUS43 KFSD 311110
RWRFSD

WEATHER ROUNDUP FOR SE SOUTH DAKOTA/SW MINNESOTA/NW IOWA
NATIONAL WEATHER SERVICE SIOUX FALLS SD
600 AM CDT MON AUG 31 2015

NOTE: "FAIR" INDICATES FEW OR NO CLOUDS BELOW 12,000 FEET WITH NO
SIGNIFICANT WEATHER AND OR OBSTRUCTIONS TO VISIBILITY.


SDZ038>040-050-052>070-311200-
SOUTHEAST SOUTH DAKOTA

CITY           SKY/WX    TMP DP  RH WIND       PRES   REMARKS
BROOKINGS      PTCLDY    64  61  88 S13G18    29.87F
CHAMBERLAIN    CLEAR     69  59  71 S13       29.77S
HURON          CLEAR     66  63  90 S12G22    29.76F
MADISON        FAIR      64  64 100 S14G23    29.87F
MITCHELL       CLEAR     68  64  87 S13       29.82S
SIOUX FALLS    PTCLDY    65  63  93 S10       29.89S
WINNER         FAIR      73  54  51 S23G33    29.76S
YANKTON        CLEAR     66  63  88 S8        29.87F
$$

MNZ071-072-080-081-089-090-097-098-311200-
SOUTHWEST MINNESOTA

CITY           SKY/WX    TMP DP  RH WIND       PRES   REMARKS
FAIRMONT       CLEAR     64  59  82 S10       29.94S
JACKSON        CLEAR     66  64  94 S13       29.94F FOG
LUVERNE        FOG       61  59  94 S3        29.92S VSB 1/2
MARSHALL       CLEAR     66  61  82 SW21G26   29.85S
MONTEVIDEO     CLEAR     63  63 100 SW9       29.85S FOG
PIPESTONE      CLEAR     64  63  94 SW13      29.90S FOG
REDWOOD FALLS  CLEAR     64  63  96 S8        29.88S
TRACY          CLEAR     68  65  90 S18G25    29.87S
WINDOM         CLEAR     64  63  94 S9        29.92S FOG
WORTHINGTON    CLEAR     66  61  82 S15       29.93S
$$

IAZ001>003-012>014-020>022-031-032-NEZ013-014-SDZ071-311200-
NORTHWEST IOWA

CITY           SKY/WX    TMP DP  RH WIND       PRES   REMARKS
CHEROKEE       CLEAR     63  63 100 S6        29.94F FOG
DENISON        CLOUDY    66  64  94 SE5       29.94S FOG
ESTHERVILLE    CLOUDY    62  62 100 S8        29.95S FOG
LE MARS        PTCLDY    66  66 100 S6        29.94R FOG
ORANGE CITY      N/A     64  64 100 S3        29.93S FOG
SHELDON        CLOUDY    64  64 100 S7        29.92S FOG
SIOUX CITY     NOT AVBL
SPENCER        CLEAR     63  61  93 S7        29.95S FOG
STORM LAKE     FOG       63  63 100 S8        29.96F VSB<1/4
$$

ABBREVIATIONS USED IN REMARKS
   TC - TEMPERATURE IN CELSIUS
  WCI - WIND CHILL INDEX
   HX - HEAT INDEX
  VSB - VISIBILITY




USA.gov is the U.S. government's official web portal to all federal, state and local government web resources and services.